[[{"header":{"parameterUnit":"m.s-1","parameterCategory":1,"la1":30.2991,"la2":30.254,"lo1":-89.0895,"lo2":-89.0444,"dy":0.0017,"dx":0.0017,"nx":28,"ny":28,"refTime":"2025-04-16T09:00:00:Z","depth":0,"parameterNumber":2,"parameterNumberName":"U-component_of_WINDS"},"data":[0,0,0,0,0,0,0,0,0,0,0,0,0,0,0,0,0,0,0,0,0,0,0,0,0,0,0,0,0,0,0,0,0,0,0,0,0,0,0,0,0,0,0,0,0,0,0,0,0,0,0,0,0,0,0,0,0,0,-0.3396,-0.3396,0,-0.339,-0.339,-0.339,-0.3387,-0.3387,-0.3387,-0.3387,-0.3382,-0.3382,-0.3382,0,0,0,0,0,0,0,0,0,0,0,0,0,-0.3406,-0.3405,-0.3396,-0.3396,-0.3396,-0.3391,-0.339,-0.339,-0.3387,-0.3387,-0.3387,-0.3387,-0.3382,-0.3382,-0.3382,0,0,0,0,0,0,0,0,0,0,0,0,0,-0.3401,-0.3405,-0.3396,-0.3394,-0.3393,-0.3391,-0.339,-0.339,-0.3387,-0.3387,-0.3387,-0.3387,-0.3382,-0.3382,-0.3382,-0.3381,0,0,-0.3381,-0.3381,0,0,0,0,0,0,0,0,-0.3401,-0.3401,-0.3394,-0.3394,-0.3393,-0.3389,-0.3392,-0.3387,-0.3387,-0.3389,-0.3387,-0.3387,-0.3384,-0.3384,-0.3383,-0.3381,-0.3381,-0.3381,-0.3381,-0.3381,-0.3381,0,0,0,0,0,0,0,-0.3402,-0.3401,-0.3394,-0.3394,-0.3394,-0.3393,-0.3393,-0.3391,-0.3387,-0.3389,-0.3389,-0.3388,-0.3384,-0.3383,-0.3383,-0.3381,-0.3381,-0.3381,-0.3381,-0.3381,-0.3379,-0.3379,0,0,0,0,0,0,-0.3402,-0.3401,-0.3394,-0.3394,-0.3397,-0.3393,-0.3392,-0.3391,-0.3387,-0.3387,-0.3388,-0.3388,-0.3384,-0.3383,-0.3383,-0.3383,-0.3381,-0.3381,-0.3381,-0.3379,-0.3379,-0.3379,0,0,0,0,0,0,-0.3402,-0.3401,-0.3394,-0.3397,-0.3396,-0.3393,-0.3391,-0.3391,-0.339,-0.3386,-0.3386,-0.3388,-0.3384,-0.3383,-0.3382,-0.3383,-0.3381,-0.3381,-0.3379,-0.3379,-0.3379,-0.3382,0,0,0,0,0,0,-0.3403,-0.3402,-0.3401,-0.3397,-0.3396,-0.3393,-0.3391,-0.3391,-0.3389,-0.3389,-0.3386,-0.3385,-0.3384,-0.3382,-0.3382,-0.3382,-0.338,-0.3379,-0.3379,-0.3379,-0.3382,-0.3383,-0.3383,0,0,0,0,0,-0.3403,-0.3402,-0.3401,-0.34,-0.3395,-0.3393,-0.3392,-0.339,-0.3389,-0.3389,-0.3387,-0.3386,-0.3383,-0.3382,-0.3382,-0.3382,-0.3379,-0.3379,-0.3379,-0.3382,-0.3383,-0.3383,0,0,0,0,0,0,-0.3405,-0.3401,-0.34,-0.3398,-0.3396,-0.3392,-0.3392,-0.339,-0.3389,-0.3389,-0.3386,-0.3385,-0.3385,-0.3383,-0.3383,-0.3382,-0.3381,-0.3381,-0.3383,-0.3383,-0.3384,-0.3384,-0.338,0,0,0,0,0,-0.3406,-0.3404,-0.34,-0.3399,-0.3398,-0.3395,-0.3394,-0.3392,-0.339,-0.3389,-0.3388,-0.3386,-0.3385,-0.3384,-0.3383,-0.3382,-0.3382,-0.3382,-0.3383,-0.3383,-0.3383,-0.3384,-0.3384,-0.338,-0.338,-0.338,0,0,-0.3406,-0.3404,-0.3403,-0.3399,-0.3398,-0.3396,-0.3394,-0.3393,-0.3392,-0.3389,-0.3388,-0.3387,-0.3385,-0.3384,-0.3384,-0.3383,-0.3384,-0.3383,-0.3383,-0.3383,-0.3384,-0.3385,-0.3385,-0.338,-0.338,-0.338,0,0,-0.3407,-0.3404,-0.3403,-0.3402,-0.3399,-0.3398,-0.3397,-0.3394,-0.3393,-0.3392,-0.3391,-0.339,-0.3388,-0.3387,-0.3386,-0.3387,-0.3386,-0.3387,-0.3389,-0.339,-0.339,-0.339,-0.3392,-0.3392,-0.3387,-0.3387,-0.3387,0,-0.3408,-0.3405,-0.3403,-0.3402,-0.3401,-0.3398,-0.3398,-0.3396,-0.3394,-0.3393,-0.3392,-0.339,-0.3389,-0.3389,-0.3389,-0.3388,-0.3389,-0.3387,-0.339,-0.339,-0.3391,-0.3392,-0.3392,-0.3387,-0.3387,-0.3387,-0.3387,0,-0.3407,-0.3406,-0.3405,-0.3403,-0.3402,-0.3401,-0.3399,-0.3398,-0.3397,-0.3396,-0.3395,-0.3394,-0.3392,-0.3392,-0.3391,-0.3392,-0.3392,-0.3391,-0.3389,-0.3391,-0.3393,-0.3393,-0.3388,-0.3388,-0.3388,-0.3388,0,0,-0.3408,-0.3405,-0.3405,-0.3405,-0.3402,-0.3402,-0.3401,-0.34,-0.34,-0.3398,-0.3398,-0.3397,-0.3396,-0.3396,-0.3394,-0.3395,-0.3397,-0.3394,-0.3394,-0.3395,-0.34,-0.3401,-0.3401,-0.3397,-0.3397,-0.3397,-0.34,0,-0.3409,-0.3408,-0.3406,-0.3405,-0.3405,-0.3403,-0.3403,-0.3402,-0.3401,-0.3401,-0.34,-0.3399,-0.3398,-0.3397,-0.3398,-0.3397,-0.3398,-0.3397,-0.3397,-0.3397,-0.3398,-0.3402,-0.3403,-0.3406,-0.34,-0.34,-0.34,0,-0.3409,-0.3408,-0.3408,-0.3406,-0.3406,-0.3406,-0.3405,-0.3405,-0.3404,-0.3403,-0.3403,-0.3402,-0.3402,-0.3401,-0.3402,-0.34,-0.3401,-0.34,-0.3401,-0.3401,-0.3399,-0.3403,-0.3407,-0.3408,-0.3401,-0.3401,-0.3401,0,-0.3411,-0.3409,-0.3409,-0.3409,-0.3407,-0.3407,-0.3407,-0.3406,-0.3406,-0.3405,-0.3405,-0.3405,-0.3405,-0.3405,-0.3404,-0.3403,-0.3406,-0.3404,-0.3406,-0.3406,-0.3406,-0.3406,-0.3411,-0.3406,-0.3406,-0.3406,-0.3406,0,-0.3412,-0.3412,-0.341,-0.341,-0.341,-0.3409,-0.3409,-0.3409,-0.3408,-0.3409,-0.3407,-0.3408,-0.3406,-0.3407,-0.3406,-0.3407,-0.3407,-0.3407,-0.3407,-0.3407,-0.3408,-0.3408,-0.3408,-0.3406,-0.3406,-0.3406,-0.3406,0,-0.3414,-0.3413,-0.3412,-0.3411,-0.3411,-0.3411,-0.3411,-0.3411,-0.341,-0.3411,-0.3411,-0.341,-0.3411,-0.341,-0.341,-0.341,-0.3412,-0.3411,-0.3412,-0.3412,-0.3414,-0.3414,-0.342,-0.3421,-0.3414,-0.3414,-0.3414,0,-0.3414,-0.3415,-0.3414,-0.3414,-0.3413,-0.3414,-0.3414,-0.3413,-0.3413,-0.3413,-0.3413,-0.3414,-0.3414,-0.3415,-0.3415,-0.3416,-0.3415,-0.3417,-0.3415,-0.3416,-0.3416,-0.3416,-0.3417,-0.3418,-0.3418,-0.3418,-0.3418,0,-0.3416,-0.3416,-0.3416,-0.3416,-0.3416,-0.3416,-0.3416,-0.3417,-0.3416,-0.3416,-0.3417,-0.3417,-0.3418,-0.3419,-0.3419,-0.3419,-0.3419,-0.3418,-0.3419,-0.342,-0.342,-0.3421,-0.3414,-0.3418,-0.3418,-0.3418,-0.3418,-0.3418,-0.3418,-0.3418,-0.3418,-0.3419,-0.3419,-0.3419,-0.342,-0.3419,-0.342,-0.342,-0.342,-0.3421,-0.3422,-0.3422,-0.3423,-0.3424,-0.3423,-0.3424,-0.3424,-0.3424,-0.3425,-0.342,-0.3424,-0.3424,-0.3424,-0.3424,-0.3424,0,-0.342,-0.342,-0.3421,-0.3421,-0.3422,-0.3421,-0.3421,-0.3422,-0.3423,-0.3423,-0.3424,-0.3426,-0.3427,-0.3427,-0.3428,-0.3429,-0.3429,-0.343,-0.343,-0.343,-0.3425,-0.3425,-0.343,-0.343,-0.343,-0.343,-0.343,-0.343,-0.3422,-0.3423,-0.3423,-0.3424,-0.3424,-0.3425,-0.3426,-0.3426,-0.3427,-0.3428,-0.343,-0.343,-0.343,-0.3432,-0.3433,-0.3433,-0.3434,-0.3435,-0.3435,-0.3431,-0.343,-0.3429,-0.3429,-0.3435,-0.3435,-0.3439,-0.3439,-0.344]},{"header":{"parameterUnit":"m.s-1","parameterCategory":1,"la1":30.2991,"la2":30.254,"lo1":-89.0895,"lo2":-89.0444,"dy":0.0017,"dx":0.0017,"nx":28,"ny":28,"refTime":"2025-04-16T09:00:00:Z","depth":0,"parameterNumber":3,"parameterNumberName":"V-component_of_WINDS"},"data":[0,0,0,0,0,0,0,0,0,0,0,0,0,0,0,0,0,0,0,0,0,0,0,0,0,0,0,0,0,0,0,0,0,0,0,0,0,0,0,0,0,0,0,0,0,0,0,0,0,0,0,0,0,0,0,0,0,0,2.2615,2.2615,0,2.2613,2.2613,2.2613,2.2564,2.2563,2.2562,2.2561,2.2558,2.2559,2.256,0,0,0,0,0,0,0,0,0,0,0,0,0,2.2573,2.2574,2.2615,2.2615,2.2615,2.2613,2.2613,2.2613,2.2564,2.2563,2.2561,2.256,2.2557,2.2559,2.256,0,0,0,0,0,0,0,0,0,0,0,0,0,2.2583,2.2574,2.2615,2.259,2.2588,2.2613,2.2613,2.2613,2.2565,2.2563,2.2561,2.2559,2.2557,2.2558,2.256,2.2607,0,0,2.2565,2.2566,0,0,0,0,0,0,0,0,2.2583,2.2585,2.2594,2.2592,2.259,2.2587,2.2597,2.2611,2.2565,2.2574,2.2561,2.2558,2.2569,2.2569,2.2573,2.2607,2.2607,2.2565,2.2566,2.2567,2.2567,0,0,0,0,0,0,0,2.2582,2.2584,2.2614,2.2594,2.2591,2.2578,2.2578,2.2599,2.2582,2.2573,2.2569,2.257,2.2567,2.2572,2.2573,2.2607,2.2565,2.2567,2.2568,2.2568,2.2676,2.2677,0,0,0,0,0,0,2.2585,2.2584,2.2614,2.2614,2.2581,2.2581,2.258,2.259,2.2581,2.2578,2.2571,2.2567,2.257,2.2571,2.2572,2.2624,2.2567,2.2568,2.2569,2.2674,2.2676,2.2678,0,0,0,0,0,0,2.2584,2.2588,2.2614,2.2598,2.26,2.2583,2.2595,2.2591,2.2595,2.258,2.2577,2.2579,2.2568,2.257,2.2598,2.2624,2.2569,2.2571,2.2672,2.2674,2.2677,2.2731,0,0,0,0,0,0,2.2583,2.2588,2.2607,2.2599,2.2601,2.2641,2.2596,2.2592,2.2598,2.2593,2.2587,2.2584,2.2567,2.2596,2.26,2.2625,2.2572,2.2669,2.2673,2.2676,2.2727,2.2735,2.2742,0,0,0,0,0,2.2582,2.2623,2.2608,2.2612,2.2625,2.2643,2.2644,2.2624,2.26,2.2618,2.2608,2.2584,2.262,2.2599,2.2603,2.2629,2.2667,2.2672,2.2676,2.2723,2.2733,2.2742,0,0,0,0,0,0,2.2635,2.2621,2.2605,2.2645,2.2645,2.2635,2.2657,2.2636,2.2643,2.2638,2.2613,2.2612,2.2643,2.2639,2.2616,2.2672,2.2639,2.2645,2.2674,2.2684,2.2691,2.2691,2.2573,0,0,0,0,0,2.2652,2.2668,2.2655,2.2691,2.2692,2.2674,2.2682,2.2666,2.2665,2.2665,2.2657,2.2657,2.2668,2.2676,2.2685,2.2726,2.2722,2.2745,2.2753,2.276,2.2764,2.2781,2.2791,2.2692,2.2692,2.2692,0,0,2.2686,2.268,2.2692,2.2702,2.27,2.2716,2.2675,2.2695,2.2706,2.2668,2.2693,2.2687,2.2685,2.2719,2.2733,2.2716,2.279,2.2765,2.277,2.2771,2.2787,2.2796,2.2804,2.2695,2.2694,2.2694,0,0,2.2755,2.2754,2.2782,2.2781,2.2779,2.2766,2.2773,2.2765,2.2759,2.2784,2.2755,2.2767,2.2788,2.2786,2.2788,2.2853,2.283,2.2857,2.2897,2.2915,2.2923,2.2929,2.295,2.2958,2.2862,2.2862,2.2862,0,2.2798,2.2822,2.28,2.282,2.2823,2.2789,2.2816,2.2816,2.2817,2.282,2.2801,2.2823,2.2819,2.285,2.2866,2.287,2.2874,2.2857,2.2923,2.293,2.2936,2.2955,2.2963,2.2865,2.2864,2.2864,2.2864,0,2.2872,2.2889,2.2912,2.2913,2.2919,2.2943,2.2922,2.2931,2.2914,2.2903,2.2927,2.2921,2.2927,2.2933,2.2918,2.2961,2.295,2.2928,2.2894,2.2949,2.2966,2.2974,2.2869,2.2868,2.2867,2.2866,0,0,2.2977,2.2963,2.2972,2.297,2.2963,2.2975,2.2996,2.3001,2.3008,2.3009,2.3024,2.3041,2.3019,2.3021,2.3004,2.302,2.3068,2.2995,2.2994,2.3007,2.3112,2.3128,2.3137,2.3053,2.3054,2.3055,2.3111,0,2.3042,2.3078,2.3057,2.3094,2.3108,2.3074,2.3091,2.3088,2.3078,2.3086,2.3075,2.3085,2.3057,2.3058,2.3072,2.3059,2.3088,2.3055,2.3065,2.3066,2.3065,2.3146,2.3164,2.3217,2.3118,2.3119,2.312,0,2.3124,2.3127,2.3166,2.3153,2.3158,2.3174,2.3175,2.3185,2.318,2.3171,2.3171,2.315,2.3167,2.3134,2.3157,2.3134,2.3137,2.3131,2.3133,2.3132,2.3095,2.3145,2.3234,2.3241,2.3131,2.3131,2.313,0,2.3193,2.3207,2.3231,2.3231,2.3218,2.3229,2.3224,2.3217,2.322,2.3221,2.3223,2.3226,2.3228,2.323,2.3209,2.3187,2.3232,2.3199,2.3223,2.3224,2.3234,2.3233,2.3322,2.3239,2.3239,2.3238,2.3238,0,2.3267,2.3292,2.3261,2.3276,2.3301,2.3276,2.3301,2.3292,2.3286,2.3297,2.3268,2.3279,2.3251,2.3258,2.3242,2.3261,2.3262,2.3254,2.3249,2.3256,2.3256,2.3256,2.3251,2.3241,2.324,2.324,2.3239,0,2.3349,2.333,2.3353,2.3338,2.3334,2.3353,2.3339,2.3351,2.3338,2.3352,2.3353,2.3332,2.3339,2.3318,2.3322,2.3311,2.3338,2.3328,2.3339,2.3336,2.3361,2.3358,2.3451,2.346,2.3373,2.3374,2.3375,0,2.3397,2.3414,2.34,2.3405,2.3401,2.341,2.3412,2.3387,2.3391,2.3384,2.3396,2.34,2.3402,2.3414,2.3398,2.34,2.3388,2.3421,2.3389,2.3393,2.3386,2.3384,2.3385,2.3427,2.3428,2.3429,2.343,0,2.3483,2.3471,2.3477,2.3477,2.3481,2.3481,2.3478,2.3484,2.3456,2.3462,2.3468,2.3469,2.3471,2.3475,2.3473,2.3466,2.3443,2.344,2.3445,2.3452,2.3457,2.3451,2.3355,2.3438,2.3437,2.3436,2.3436,2.3436,2.3547,2.356,2.3551,2.3556,2.3551,2.3549,2.3558,2.3545,2.3549,2.3549,2.3534,2.3542,2.3533,2.3527,2.3523,2.3528,2.3512,2.3521,2.3523,2.3525,2.3528,2.3457,2.3527,2.3527,2.3527,2.3527,2.3527,0,2.3629,2.3621,2.3627,2.3623,2.3626,2.3604,2.3599,2.3603,2.3611,2.3604,2.3606,2.3611,2.3614,2.3597,2.3597,2.3604,2.3593,2.3604,2.3603,2.3601,2.3543,2.3537,2.3613,2.3613,2.3613,2.3613,2.3613,2.3613,2.3673,2.3692,2.3679,2.3694,2.3685,2.3693,2.3692,2.3688,2.3682,2.3689,2.3691,2.368,2.3668,2.3667,2.3667,2.3662,2.3662,2.3677,2.3668,2.3614,2.3605,2.3597,2.3592,2.3678,2.3678,2.3725,2.3725,2.3726]}]]